User: anonymous   Login
Location: Bergnerzell
(49.1816°N, 10.2565°E)
Time: 18:00:23
(UTC+00:00)
Language:

RESURS DK-1 - Orbit

View from above orbital plane
View from above orbital plane
View from above satellite
View from above satellite

Ground track
Ground track

The orbit data is extracted from the following two-line orbital elements,

1 29228U 06021A   24199.87688358  .00005800  00000-0  38730-3 0  9997
2 29228  69.9366 343.0243 0006462 300.8586  59.1941 15.07530421996945
Epoch (UTC): 17 July 2024 21:02:42
Eccentricity: 0.0006462
inclination: 69.9366°
perigee height: 539 km
apogee height: 548 km
right ascension of ascending node: 343.0243°
argument of perigee: 300.8586°
revolutions per day: 15.07530421
mean anomaly at epoch: 59.1941°
orbit number at epoch: 99694

The dashed part of the orbit path shows where the satellite is in the earth's shadow,  

DLR